Starlink 11635

operational
NORAD ID: 63193 Int'l Des: 2025-048 Owner: SPXS Country: US Constellation: starlink
LEOCIRCULAR

关于 Starlink 11635

正在加载描述...

实时位置

正在加载3D地球...

即将过境

高度历史

Altitude vs Time

uPlot chart will show altitude changes over time

两行轨道根数

1 63193U 25048L 25304.67496022 .00270733 00000-0 20477-2 0 9995
2 63193 42.9989 17.2723 0001808 318.9583 41.1148 15.70812807 38235
Epoch: Oct 31, 2025 • Age: 20 hours

当前状态

高度 355.4 km
速度 7.70 km/s
星下点 -7.83°S, 143.05°E
发射日期 Mar 13, 2025
运行时间 0.6 years
类型 internet

技术详情

分类 Payload
质量 960.00 kg
干质量 910.00 kg
总质量 960.00 kg
长度 0.30 m
直径 4.10 m
跨度 29.00 m
形状 Box + pan
制造商 SPXS
平台类型 Starlink V2MD
阶段状态 In Orbit
所有者/国家 SPXS/US

大型星座

Loading constellations...